Meteo Giornale » Osservazioni meteo Stati Uniti (USA) » Cape Kennedy
ore: 06:55 - Osservazioni Meteo Cape Kennedy
Lat. 28° 28' N Lon. 80° 33' W Alt. 3 metri s.l.m.
25 °C
Sereno
Temp. 24 Ore
25 °C
32 °C
Nord/Nord-Est
7.4 Km/h
Dew point 24 °C
Umidità 94 %
Visibilità 10 Km
Il sole sorge alle ore 07:00
Il sole tramonta alle ore 19:43
| Data e Ora | Cielo e Fenomeni | T °C | DP °C | Um. % | Pres. hPa | Vis. km | Vento km/h | |
|---|---|---|---|---|---|---|---|---|
| Oggi h: 06:55 | Sereno | 25 | 24 | 94 | 1014 | 10 | N/NE 7.4 | |
| Oggi h: 05:55 | Sereno | 25 | 24 | 94 | 1014 | 10 | N 5.5 | |
| Oggi h: 04:55 | Sereno | 25 | 23 | 88 | 1014 | 10 | N 0 | |
| Oggi h: 03:55 | Sereno | 26 | 24 | 88 | 1014 | 10 | N 0 | |
| Oggi h: 02:55 | Sereno | 25 | 24 | 94 | 1014 | 10 | N 0 | |
| Oggi h: 01:55 | Sereno | 26 | 25 | 94 | 1015 | 10 | N 0 | |
| Oggi h: 00:55 | Poco Nuvoloso | 26 | 24 | 88 | 1015 | 10 | N 0 | |
| Ieri h: 23:55 | Coperto | 27 | 25 | 88 | 1015 | 10 | N 0 | |
| Ieri h: 23:33 | Molto Nuvoloso | 27 | 25 | 88 | 1015 | 10 | N 0 | |
| Ieri h: 23:24 | Pioviggine | 27 | 25 | 88 | 1015 | 10 | N 5.5 | |
| Ieri h: 23:04 | Poco Nuvoloso | 27 | 25 | 88 | 1015 | 10 | N 5.5 | |
| Ieri h: 22:55 | Pioggia | 26 | 24 | 88 | 1016 | 10 | N/NE 7.4 | |
| Ieri h: 22:51 | Pioggia | 26 | 24 | 88 | 1016 | 10 | N 5.5 | |
| Ieri h: 21:55 | Coperto | 26 | 24 | 88 | 1015 | 10 | N 5.5 | |
| Ieri h: 20:55 | Molto Nuvoloso | 27 | 24 | 83 | 1015 | 10 | N 5.5 | |
| Ieri h: 19:55 | Coperto | 27 | 24 | 83 | 1015 | 10 | N 0 | |
| Ieri h: 18:55 | Nuvoloso | 28 | 24 | 78 | 1014 | 10 | N 5.5 | |
| Ieri h: 17:55 | Poco Nuvoloso | 27 | 22 | 74 | 1015 | 10 | E 9.3 | |
| Ieri h: 16:55 | Poco Nuvoloso | 29 | 25 | 79 | 1015 | 10 | NE 9.3 | |
| Ieri h: 15:55 | Poco Nuvoloso | 29 | 25 | 79 | 1015 | 10 | N/NE 9.3 | |
| Ieri h: 14:55 | Poco Nuvoloso | 32 | 25 | 66 | 1015 | 10 | NE 16.7 | |
| Ieri h: 13:55 | Sereno | 31 | 25 | 70 | 1015 | 10 | NE 18.5 | |
| Ieri h: 12:55 | Sereno | 31 | 25 | 70 | 1016 | 10 | NE 18.5 | |
| Ieri h: 11:55 | Nuvoloso | 31 | 25 | 70 | 1017 | 10 | N/NE 9.3 | |
| Ieri h: 10:55 | Molto Nuvoloso | 30 | 25 | 74 | 1016 | 10 | NE 7.4 | |
| Ieri h: 09:55 | Sereno | 30 | 25 | 74 | 1016 | 10 | N 5.5 | |
| Ieri h: 08:55 | Sereno | 29 | 26 | 83 | 1016 | 10 | NE 7.4 | |



